Date String (YYYY-MM-DD hh:mm:ss) UTC,Instrument flags,Ambient pressure (hPa),Sample flow (lpm),Bypass flow (lpm),Sample temperature (°C),Ambient temperature (°C),ASC tube jacket temperature (°C),LED temperature (°C),Box temperature (°C),Sample RH (%),Mass concentration (μg/m³),Mass concentration (μg/m³)
DateTimeUTC,F1_M11,P_M11,Q1_M11,Q2_M11,T1_M11,T2_M11,T3_M11,T4_M11,T5_M11,U1_M11,X0_M11,X2_M11
2021-08-12 11:00:00,FlowAlarm;OPCInstrumentWarning,0828.9,5.01,0.00,29.9,29.2,00.0,39.0,31.9,13.6,0035.33,0023.87
2021-08-12 11:01:00,FlowAlarm;OPCInstrumentWarning,0828.9,4.99,0.00,30.0,29.2,00.0,39.0,31.9,13.3,0033.65,0023.73
2021-08-12 11:02:00,FlowAlarm;OPCInstrumentWarning,0828.9,4.99,0.00,30.0,29.2,00.0,39.0,32.0,13.1,0033.00,0023.62
2021-08-12 11:03:00,FlowAlarm;OPCInstrumentWarning,0828.9,5.00,0.00,30.0,29.3,00.0,39.1,32.0,12.8,0033.19,0023.45
2021-08-12 11:04:00,FlowAlarm;OPCInstrumentWarning,0828.9,5.00,0.00,30.1,29.3,00.0,39.1,32.0,12.9,0033.21,0023.28
2021-08-12 11:05:00,FlowAlarm;OPCInstrumentWarning,0828.9,4.99,0.00,30.1,29.2,00.0,39.1,32.0,12.8,0032.92,0023.08
2021-08-12 11:06:00,FlowAlarm;OPCInstrumentWarning,0828.8,4.99,0.00,30.0,27.5,00.0,39.1,31.6,12.6,0032.44,0022.95
2021-08-12 11:07:00,FlowAlarm;OPCInstrumentWarning,0828.9,5.00,0.00,29.9,26.5,00.0,39.1,31.3,12.7,0031.36,0022.74
2021-08-12 11:08:00,FlowAlarm;OPCInstrumentWarning,0828.9,5.01,0.00,29.8,26.7,00.0,39.0,31.3,12.8,0031.10,0022.54
2021-08-12 11:09:00,FlowAlarm;OPCInstrumentWarning,0828.9,5.00,0.00,29.7,27.0,00.0,39.0,31.3,12.9,0031.36,0022.31
2021-08-12 11:10:00,FlowAlarm;OPCInstrumentWarning,0828.9,4.99,0.00,29.6,27.4,00.0,39.0,31.3,12.9,0030.85,0022.18
2021-08-12 11:11:00,FlowAlarm;OPCInstrumentWarning,0828.9,5.01,0.00,29.6,27.7,00.0,38.9,31.4,12.8,0030.67,0022.05
2021-08-12 11:12:00,FlowAlarm;OPCInstrumentWarning,0828.8,4.99,0.00,29.6,28.0,00.0,38.9,31.5,12.9,0030.64,0021.95
2021-08-12 11:13:00,FlowAlarm;OPCInstrumentWarning,0828.9,5.02,0.00,29.6,28.2,00.0,38.9,31.5,12.8,0030.94,0021.84
2021-08-12 11:14:00,FlowAlarm;OPCInstrumentWarning,0828.9,4.99,0.00,29.7,28.3,00.0,38.9,31.5,12.7,0031.45,0021.86
2021-08-12 11:15:00,FlowAlarm;OPCInstrumentWarning,0828.9,5.01,0.00,29.7,28.4,00.0,38.9,31.6,12.7,0031.58,0021.84
2021-08-12 11:16:00,FlowAlarm;OPCInstrumentWarning,0829.0,4.99,0.00,29.7,28.6,00.0,38.9,31.6,12.7,0031.61,0021.82
2021-08-12 11:17:00,FlowAlarm;OPCInstrumentWarning,0829.0,5.01,0.00,29.7,28.6,00.0,38.9,31.6,12.7,0031.64,0021.79
2021-08-12 11:18:00,FlowAlarm;OPCInstrumentWarning,0829.0,4.99,0.00,29.8,28.7,00.0,38.9,31.7,12.7,0032.29,0021.92
2021-08-12 11:19:00,FlowAlarm;OPCInstrumentWarning,0829.0,5.00,0.00,29.8,28.8,00.0,39.0,31.7,12.7,0032.08,0021.99
2021-08-12 11:20:00,FlowAlarm;OPCInstrumentWarning,0829.0,4.99,0.00,29.8,28.8,00.0,39.0,31.7,12.7,0031.40,0022.04
2021-08-12 11:21:00,FlowAlarm;OPCInstrumentWarning,0829.1,5.01,0.00,29.8,28.9,00.0,39.0,31.8,12.6,0031.14,0022.06
2021-08-12 11:22:00,FlowAlarm;OPCInstrumentWarning,0829.0,5.00,0.00,29.9,28.9,00.0,39.0,31.8,12.6,0031.50,0022.06
2021-08-12 11:23:00,FlowAlarm;OPCInstrumentWarning,0829.1,5.00,0.00,29.9,29.0,00.0,39.0,31.8,13.0,0031.91,0022.08
2021-08-12 11:24:00,FlowAlarm;OPCInstrumentWarning,0829.0,4.99,0.00,29.9,29.0,00.0,39.0,31.9,13.5,0031.74,0022.12
2021-08-12 11:25:00,FlowAlarm;OPCInstrumentWarning,0829.0,4.99,0.00,30.0,29.0,00.0,39.1,31.9,13.7,0031.80,0022.21
2021-08-12 11:26:00,FlowAlarm;OPCInstrumentWarning,0829.1,5.01,0.00,30.0,29.1,00.0,39.1,31.9,13.6,0032.25,0022.33
2021-08-12 11:27:00,FlowAlarm;OPCInstrumentWarning,0829.1,5.00,0.00,30.0,29.1,00.0,39.1,31.9,13.6,0033.23,0022.42
2021-08-12 11:28:00,FlowAlarm;OPCInstrumentWarning,0829.1,5.00,0.00,30.0,28.9,00.0,39.1,31.9,13.5,0034.14,0022.45
2021-08-12 11:29:00,FlowAlarm;OPCInstrumentWarning,0829.1,5.01,0.00,30.0,27.1,00.0,39.1,31.4,13.4,0033.88,0022.45
2021-08-12 11:30:00,FlowAlarm;OPCInstrumentWarning,0829.1,4.99,0.00,29.7,25.6,00.0,39.0,30.9,13.4,0034.07,0022.48
2021-08-12 11:31:00,FlowAlarm;OPCInstrumentWarning,0829.1,5.02,0.00,29.6,25.6,00.0,39.0,30.9,13.3,0034.47,0022.56
2021-08-12 11:32:00,FlowAlarm;OPCInstrumentWarning,0829.1,5.00,0.00,29.4,26.0,00.0,38.9,30.9,13.4,0035.59,0022.62
2021-08-12 11:33:00,FlowAlarm;OPCInstrumentWarning,0829.2,4.99,0.00,29.4,26.5,00.0,38.8,31.0,13.3,0035.87,0022.70
2021-08-12 11:34:00,FlowAlarm;OPCInstrumentWarning,0829.2,5.00,0.00,29.3,26.9,00.0,38.8,31.1,13.2,0036.17,0022.74
2021-08-12 11:35:00,FlowAlarm;OPCInstrumentWarning,0829.2,4.99,0.00,29.3,27.3,00.0,38.8,31.2,13.2,0037.46,0022.75
2021-08-12 11:36:00,FlowAlarm;OPCInstrumentWarning,0829.3,5.01,0.00,29.3,27.6,00.0,38.8,31.2,13.1,0037.20,0022.69
2021-08-12 11:37:00,FlowAlarm;OPCInstrumentWarning,0829.2,4.98,0.00,29.3,27.8,00.0,38.7,31.3,13.4,0037.27,0022.63
2021-08-12 11:38:00,FlowAlarm;OPCInstrumentWarning,0829.2,5.01,0.00,29.3,28.0,00.0,38.7,31.3,13.1,0036.48,0022.60
2021-08-12 11:39:00,FlowAlarm;OPCInstrumentWarning,0829.2,5.00,0.00,29.4,28.1,00.0,38.7,31.3,13.1,0035.58,0022.58
2021-08-12 11:40:00,FlowAlarm;OPCInstrumentWarning,0829.2,5.02,0.00,29.4,28.2,00.0,38.7,31.4,13.1,0035.71,0022.59
2021-08-12 11:41:00,FlowAlarm;OPCInstrumentWarning,0829.2,5.00,0.00,29.4,28.3,00.0,38.7,31.4,13.6,0035.60,0022.58
2021-08-12 11:42:00,FlowAlarm;OPCInstrumentWarning,0829.2,4.99,0.00,29.4,28.4,00.0,38.7,31.4,14.1,0035.48,0022.61
2021-08-12 11:43:00,FlowAlarm;OPCInstrumentWarning,0829.3,5.01,0.00,29.5,28.5,00.0,38.7,31.5,13.8,0034.38,0022.59
2021-08-12 11:44:00,FlowAlarm;OPCInstrumentWarning,0829.2,4.99,0.00,29.5,28.6,00.0,38.7,31.5,13.8,0034.29,0022.55
2021-08-12 11:45:00,FlowAlarm;OPCInstrumentWarning,0829.2,5.01,0.00,29.5,28.6,00.0,38.8,31.5,14.6,0034.49,0022.60
2021-08-12 11:46:00,FlowAlarm;OPCInstrumentWarning,0829.2,5.00,0.00,29.5,28.7,00.0,38.8,31.5,14.5,0033.26,0022.67
2021-08-12 11:47:00,FlowAlarm;OPCInstrumentWarning,0829.2,5.01,0.00,29.6,28.8,00.0,38.8,31.6,14.9,0033.39,0022.70
2021-08-12 11:48:00,FlowAlarm;OPCInstrumentWarning,0829.2,4.99,0.00,29.6,28.8,00.0,38.8,31.6,14.6,0033.08,0022.82
2021-08-12 11:49:00,FlowAlarm;OPCInstrumentWarning,0829.3,5.01,0.00,29.6,28.8,00.0,38.8,31.6,14.6,0033.16,0022.88
2021-08-12 11:50:00,FlowAlarm;OPCInstrumentWarning,0829.3,5.00,0.00,29.7,28.8,00.0,38.8,31.7,14.3,0033.18,0022.95
2021-08-12 11:51:00,FlowAlarm;OPCInstrumentWarning,0829.3,4.99,0.00,29.7,28.9,00.0,38.8,31.7,14.6,0032.99,0022.96
2021-08-12 11:52:00,FlowAlarm;OPCInstrumentWarning,0829.3,4.99,0.00,29.7,28.9,00.0,38.9,31.7,14.3,0032.88,0023.02
2021-08-12 11:53:00,FlowAlarm;OPCInstrumentWarning,0829.2,5.01,0.00,29.7,28.9,00.0,38.9,31.7,15.5,0033.78,0023.21
2021-08-12 11:54:00,FlowAlarm;OPCInstrumentWarning,0829.3,4.99,0.00,29.8,29.0,00.0,38.9,31.8,15.8,0034.56,0023.46
2021-08-12 11:55:00,FlowAlarm;OPCInstrumentWarning,0829.3,4.99,0.00,29.8,29.0,00.0,38.9,31.8,15.8,0034.16,0023.65
2021-08-12 11:56:00,FlowAlarm;OPCInstrumentWarning,0829.4,5.01,0.00,29.8,29.0,00.0,38.9,31.7,15.9,0033.63,0023.82
2021-08-12 11:57:00,FlowAlarm;OPCInstrumentWarning,0829.5,4.99,0.00,29.8,29.1,00.0,39.0,31.8,16.0,0034.87,0024.03
2021-08-12 11:58:00,FlowAlarm;OPCInstrumentWarning,0829.5,5.01,0.00,29.9,29.1,00.0,39.0,31.8,16.2,0035.27,0024.24
2021-08-12 11:59:00,FlowAlarm;OPCInstrumentWarning,0829.5,5.01,0.00,29.9,29.1,00.0,39.0,31.9,16.5,0035.38,0024.42
